CARTOSAT-2A

Last updated on Tue Oct 15 2024 00:02:24 GMT+0000 (Coordinated Universal Time)

1 32783U 08021A 24288.54063519 .00002386 00000+0 33158-3 0 9992 2 32783 97.8527 344.2207 0011055 295.3450 64.6616 14.78745180888553
UTC large
Height (km)
Speed (km/s)
/
Latitude / Longitude
Inclination (degrees)
Orbital Period (minutes)
Azimuth
Elevation
Range (km)
Doppler Factor

Next 0 passes for location: London (51.5072 / 0.1276)

Sorry there are no passes over London.